Retour au catalogue

DONGPO 11

ActifScienceSSO
NORAD 68206·PAYLOAD·🇨🇳 China
Ce nom de satellite n'a pas encore été confirmé par des sources officielles.

Lancé Mar 16, 2026 depuis Jiuquan Satellite Launch Center

Loading…

Prochains Passages (prochaines 24 heures)

TLE

FraisSource: Space-Track

Époque: Sep 14, 2026, 11:39 UTC

1 68206U 26052J   26257.48550908  .00086841  28825-5  99115-3 0  9993
2 68206  97.3189 319.2834 0439829 129.4124 234.6911 14.94621556 26983

Suivez DONGPO 11 en temps réel avec AllMySat

Download on the App Store